GAOFEN-12 03

Last updated on Wed Feb 04 2026 00:02:33 GMT+0000 (Coordinated Universal Time)

1 52912U 22069A 26034.65314139 .00001392 00000+0 19175-3 0 9995 2 52912 97.8460 285.7763 0000903 117.6978 242.4326 14.79767427194869
UTC large
Height (km)
Speed (km/s)
/
Latitude / Longitude
Inclination (degrees)
Orbital Period (minutes)
Azimuth
Elevation
Range (km)
Doppler Factor

Next 0 passes for location: London (51.5072 / 0.1276)

Sorry there are no passes over London.